• In Lithuania
  • List of Countries
  • For 7 days
  • Water Temperature
  • Satellite Maps
  • Weather Map
  • Weather Widgets
  • user-avatar
    Login

    Hourly Weather Oktyabrskiy

    Today, 22 April, Sunday

    Time Temperature Precipitation Wind Pressure Humidity
    00:00 +9°C° 0 mm 8 mps 737 mmHg 60%
    01:00 +9°C° 0 mm 8 mps 736 mmHg 62%
    02:00 +9°C° 0 mm 8 mps 735 mmHg 63%
    03:00 +8°C° 0 mm 9 mps 734 mmHg 65%
    04:00 +9°C° 0.3 mm 8 mps 734 mmHg 69%
    05:00 +9°C° 0.3 mm 8 mps 734 mmHg 73%
    06:00 +9°C° 0.3 mm 7 mps 734 mmHg 77%
    07:00 +10°C° 0.1 mm 7 mps 734 mmHg 74%
    08:00 +11°C° 0.1 mm 7 mps 735 mmHg 70%
    09:00 +12°C° 0.1 mm 7 mps 735 mmHg 67%
    10:00 +14°C° 0 mm 7 mps 735 mmHg 59%
    11:00 +15°C° 0 mm 7 mps 736 mmHg 52%
    12:00 +16°C° 0 mm 7 mps 736 mmHg 44%
    13:00 +16°C° 0 mm 7 mps 736 mmHg 42%
    14:00 +16°C° 0 mm 7 mps 736 mmHg 40%
    15:00 +16°C° 0 mm 7 mps 736 mmHg 38%
    16:00 +16°C° 0 mm 7 mps 736 mmHg 42%
    17:00 +15°C° 0 mm 6 mps 736 mmHg 46%
    18:00 +14°C° 0 mm 5 mps 736 mmHg 49%
    19:00 +13°C° 0 mm 5 mps 736 mmHg 51%
    20:00 +12°C° 0 mm 5 mps 737 mmHg 53%
    21:00 +11°C° 0 mm 4 mps 737 mmHg 55%
    22:00 +10°C° 0 mm 4 mps 737 mmHg 58%
    23:00 +8°C° 0 mm 4 mps 737 mmHg 60%

    Tomorrow, 23 April, Monday

    Time Temperature Precipitation Wind Pressure Humidity
    00:00 +8°C° 0 mm 4 mps 738 mmHg 62%
    01:00 +7°C° 0 mm 4 mps 738 mmHg 64%
    02:00 +7°C° 0 mm 4 mps 738 mmHg 67%
    03:00 +6°C° 0 mm 4 mps 738 mmHg 69%
    04:00 +6°C° 0 mm 4 mps 738 mmHg 72%
    05:00 +6°C° 0 mm 4 mps 739 mmHg 74%
    06:00 +5°C° 0 mm 4 mps 739 mmHg 77%
    07:00 +7°C° 0 mm 5 mps 739 mmHg 70%
    08:00 +8°C° 0 mm 5 mps 740 mmHg 63%
    09:00 +10°C° 0 mm 6 mps 740 mmHg 56%
    10:00 +10°C° 0.2 mm 6 mps 740 mmHg 53%
    11:00 +11°C° 0.2 mm 7 mps 740 mmHg 51%
    12:00 +12°C° 0.2 mm 7 mps 740 mmHg 48%
    13:00 +12°C° 0.2 mm 7 mps 740 mmHg 48%
    14:00 +11°C° 0.2 mm 6 mps 740 mmHg 48%
    15:00 +11°C° 0.2 mm 6 mps 740 mmHg 48%
    16:00 +11°C° 0.1 mm 6 mps 741 mmHg 49%
    17:00 +10°C° 0.1 mm 6 mps 741 mmHg 50%
    18:00 +10°C° 0.1 mm 6 mps 741 mmHg 50%
    19:00 +8°C° 0 mm 5 mps 742 mmHg 53%
    20:00 +7°C° 0 mm 4 mps 742 mmHg 56%
    21:00 +5°C° 0 mm 3 mps 743 mmHg 59%
    22:00 +5°C° 0 mm 2 mps 743 mmHg 60%
    23:00 +5°C° 0 mm 2 mps 744 mmHg 61%

    Day after tomorrow, 24 April, Tuesday

    Time Temperature Precipitation Wind Pressure Humidity
    00:00 +5°C° 0 mm 1 mps 744 mmHg 62%
    01:00 +5°C° 0 mm 1 mps 744 mmHg 62%
    02:00 +4°C° 0 mm 1 mps 744 mmHg 63%
    03:00 +3°C° 0 mm 0 mps 744 mmHg 63%
    04:00 +3°C° 0 mm 0 mps 745 mmHg 64%
    05:00 +3°C° 0 mm 0 mps 745 mmHg 65%
    06:00 +4°C° 0 mm 1 mps 745 mmHg 65%
    07:00 +6°C° 0 mm 1 mps 745 mmHg 59%
    08:00 +7°C° 0 mm 1 mps 745 mmHg 53%
    09:00 +8°C° 0 mm 2 mps 746 mmHg 46%
    10:00 +9°C° 0 mm 2 mps 746 mmHg 43%
    11:00 +10°C° 0 mm 3 mps 746 mmHg 41%
    12:00 +12°C° 0 mm 3 mps 746 mmHg 38%
    13:00 +12°C° 0 mm 3 mps 745 mmHg 39%
    14:00 +12°C° 0 mm 3 mps 745 mmHg 39%
    15:00 +13°C° 0 mm 3 mps 745 mmHg 40%
    16:00 +13°C° 0 mm 3 mps 745 mmHg 43%
    17:00 +13°C° 0 mm 2 mps 745 mmHg 46%
    18:00 +13°C° 0 mm 2 mps 744 mmHg 50%
    19:00 +12°C° 0.1 mm 2 mps 744 mmHg 54%
    20:00 +10°C° 0.1 mm 2 mps 744 mmHg 58%
    21:00 +9°C° 0.1 mm 2 mps 744 mmHg 62%
    22:00 +9°C° 0.4 mm 2 mps 744 mmHg 68%
    23:00 +9°C° 0.4 mm 2 mps 744 mmHg 74%

    25 April, Wednesday

    Time Temperature Precipitation Wind Pressure Humidity
    00:00 +8°C° 0.4 mm 3 mps 744 mmHg 79%
    01:00 +8°C° 0.5 mm 3 mps 744 mmHg 82%
    02:00 +8°C° 0.5 mm 3 mps 743 mmHg 85%
    03:00 +7°C° 0.5 mm 4 mps 743 mmHg 87%
    04:00 +7°C° 0.4 mm 4 mps 743 mmHg 88%
    05:00 +7°C° 0.4 mm 5 mps 743 mmHg 90%
    06:00 +7°C° 0.4 mm 5 mps 742 mmHg 91%
    07:00 +7°C° 0.4 mm 5 mps 743 mmHg 91%
    08:00 +8°C° 0.4 mm 5 mps 743 mmHg 92%
    09:00 +8°C° 0.4 mm 4 mps 743 mmHg 92%
    10:00 +10°C° 0.1 mm 4 mps 743 mmHg 89%
    11:00 +11°C° 0.1 mm 4 mps 743 mmHg 86%
    12:00 +12°C° 0.1 mm 3 mps 743 mmHg 83%
    13:00 +13°C° 0.1 mm 3 mps 743 mmHg 80%
    14:00 +14°C° 0.1 mm 3 mps 743 mmHg 77%
    15:00 +14°C° 0.1 mm 3 mps 743 mmHg 74%
    16:00 +14°C° 0.1 mm 3 mps 743 mmHg 73%
    17:00 +16°C° 0.1 mm 2 mps 743 mmHg 73%
    18:00 +16°C° 0.1 mm 2 mps 743 mmHg 72%
    19:00 +15°C° 0.1 mm 2 mps 743 mmHg 76%
    20:00 +13°C° 0.1 mm 1 mps 744 mmHg 80%
    21:00 +12°C° 0.1 mm 1 mps 744 mmHg 84%
    22:00 +12°C° 0 mm 1 mps 744 mmHg 85%
    23:00 +11°C° 0 mm 1 mps 744 mmHg 86%

    26 April, Thursday

    Time Temperature Precipitation Wind Pressure Humidity
    00:00 +10°C° 0 mm 2 mps 744 mmHg 87%
    01:00 +10°C° 0 mm 2 mps 744 mmHg 88%
    02:00 +9°C° 0 mm 2 mps 744 mmHg 88%
    03:00 +9°C° 0 mm 2 mps 744 mmHg 89%
    04:00 +9°C° 0 mm 2 mps 744 mmHg 88%
    05:00 +9°C° 0 mm 2 mps 744 mmHg 88%
    06:00 +9°C° 0 mm 2 mps 744 mmHg 88%
    07:00 +11°C° 0 mm 3 mps 744 mmHg 81%
    08:00 +13°C° 0 mm 4 mps 745 mmHg 73%
    09:00 +16°C° 0 mm 5 mps 745 mmHg 65%
    10:00 +17°C° 0 mm 6 mps 745 mmHg 61%
    11:00 +19°C° 0 mm 6 mps 744 mmHg 56%
    12:00 +21°C° 0 mm 7 mps 744 mmHg 51%
    13:00 +21°C° 0 mm 7 mps 744 mmHg 50%
    14:00 +22°C° 0 mm 8 mps 744 mmHg 49%
    15:00 +22°C° 0 mm 8 mps 743 mmHg 48%
    16:00 +21°C° 0 mm 8 mps 743 mmHg 51%
    17:00 +20°C° 0 mm 7 mps 743 mmHg 54%
    18:00 +18°C° 0 mm 7 mps 743 mmHg 57%
    19:00 +17°C° 0 mm 7 mps 743 mmHg 59%
    20:00 +16°C° 0 mm 6 mps 743 mmHg 62%
    21:00 +15°C° 0 mm 6 mps 744 mmHg 64%
    22:00 +14°C° 0 mm 5 mps 744 mmHg 68%
    23:00 +14°C° 0 mm 4 mps 744 mmHg 71%

    27 April, Friday

    Time Temperature Precipitation Wind Pressure Humidity
    00:00 +13°C° 0 mm 4 mps 744 mmHg 75%
    01:00 +13°C° 0 mm 3 mps 745 mmHg 78%
    02:00 +12°C° 0 mm 3 mps 745 mmHg 82%
    03:00 +13°C° 0 mm 2 mps 745 mmHg 86%
    04:00 +13°C° 0 mm 2 mps 745 mmHg 86%
    05:00 +12°C° 0 mm 2 mps 746 mmHg 86%
    06:00 +12°C° 0 mm 2 mps 746 mmHg 85%
    07:00 +13°C° 0 mm 3 mps 747 mmHg 76%
    08:00 +16°C° 0 mm 3 mps 747 mmHg 67%
    09:00 +17°C° 0 mm 3 mps 747 mmHg 58%
    10:00 +19°C° 0 mm 3 mps 748 mmHg 53%
    11:00 +20°C° 0 mm 3 mps 748 mmHg 48%
    12:00 +21°C° 0 mm 3 mps 748 mmHg 44%
    13:00 +22°C° 0 mm 3 mps 747 mmHg 42%
    14:00 +22°C° 0 mm 3 mps 747 mmHg 40%
    15:00 +24°C° 0 mm 3 mps 747 mmHg 38%
    16:00 +22°C° 0 mm 3 mps 746 mmHg 41%
    17:00 +22°C° 0 mm 3 mps 746 mmHg 45%
    18:00 +21°C° 0 mm 3 mps 746 mmHg 48%
    19:00 +19°C° 0 mm 4 mps 746 mmHg 51%
    20:00 +18°C° 0 mm 4 mps 746 mmHg 54%
    21:00 +15°C° 0 mm 4 mps 746 mmHg 57%
    22:00 +14°C° 0 mm 4 mps 746 mmHg 56%
    23:00 +14°C° 0 mm 5 mps 746 mmHg 54%
    Show more